TimeEDT,TemperatureF,Dew PointF,Humidity,Sea Level PressureIn,VisibilityMPH,Wind Direction,Wind SpeedMPH,Gust SpeedMPH,PrecipitationIn,Events,Conditions,WindDirDegrees,DateUTC
12:15 AM,71.6,71.6,100,30.12,5.0,Calm,Calm,-,N/A,,Mist,0,2013-05-19 04:15:00
12:35 AM,69.8,69.8,100,30.12,7.0,Calm,Calm,-,N/A,,Unknown,0,2013-05-19 04:35:00
12:55 AM,71.6,71.6,100,30.12,10.0,Calm,Calm,-,N/A,,Unknown,0,2013-05-19 04:55:00
1:15 AM,71.6,71.6,100,30.11,10.0,ESE,3.5,-,N/A,,Unknown,110,2013-05-19 05:15:00
1:35 AM,71.6,71.6,100,30.11,10.0,East,3.5,-,N/A,,Unknown,100,2013-05-19 05:35:00
2:15 AM,71.6,71.6,100,30.10,10.0,ESE,3.5,-,N/A,,Unknown,110,2013-05-19 06:15:00
2:35 AM,71.6,71.6,100,30.10,10.0,East,3.5,-,N/A,,Unknown,100,2013-05-19 06:35:00
2:55 AM,71.6,71.6,100,30.10,10.0,East,3.5,-,N/A,,Unknown,100,2013-05-19 06:55:00
3:15 AM,71.6,71.6,100,30.09,10.0,East,3.5,-,N/A,,Unknown,100,2013-05-19 07:15:00
3:35 AM,71.6,71.6,100,30.09,10.0,East,3.5,-,N/A,,Unknown,90,2013-05-19 07:35:00
3:55 AM,71.6,71.6,100,30.09,10.0,East,3.5,-,N/A,,Unknown,90,2013-05-19 07:55:00
4:15 AM,71.6,71.6,100,30.09,10.0,East,3.5,-,N/A,,Unknown,100,2013-05-19 08:15:00
4:35 AM,71.6,71.6,100,30.09,10.0,East,4.6,-,N/A,,Unknown,100,2013-05-19 08:35:00
4:55 AM,71.6,71.6,100,30.09,10.0,East,3.5,-,N/A,,Unknown,90,2013-05-19 08:55:00
5:15 AM,71.6,71.6,100,30.09,10.0,ESE,3.5,-,N/A,,Unknown,110,2013-05-19 09:15:00
5:35 AM,71.6,71.6,100,30.09,10.0,ESE,4.6,-,N/A,,Unknown,120,2013-05-19 09:35:00
5:55 AM,71.6,71.6,100,30.10,10.0,ESE,4.6,-,N/A,,Unknown,120,2013-05-19 09:55:00
6:15 AM,71.6,71.6,100,30.10,10.0,SE,4.6,-,N/A,,Unknown,140,2013-05-19 10:15:00
6:35 AM,71.6,71.6,100,30.11,10.0,SE,3.5,-,N/A,,Unknown,140,2013-05-19 10:35:00
6:55 AM,71.6,71.6,100,30.12,10.0,SE,4.6,-,N/A,,Unknown,130,2013-05-19 10:55:00
7:15 AM,71.6,71.6,100,30.13,10.0,SSE,4.6,-,N/A,,Unknown,150,2013-05-19 11:15:00
7:35 AM,71.6,71.6,100,30.13,10.0,SE,8.1,-,N/A,,Unknown,130,2013-05-19 11:35:00
8:15 AM,71.6,71.6,100,30.14,10.0,SSE,4.6,-,N/A,,Unknown,160,2013-05-19 12:15:00
8:35 AM,71.6,69.8,94,30.14,10.0,SE,5.8,-,N/A,,Unknown,140,2013-05-19 12:35:00
8:55 AM,73.4,71.6,94,30.15,10.0,SE,6.9,-,N/A,,Unknown,130,2013-05-19 12:55:00
9:15 AM,73.4,69.8,88,30.15,10.0,SE,6.9,-,N/A,,Unknown,130,2013-05-19 13:15:00
9:35 AM,77.0,69.8,78,30.15,10.0,SE,5.8,-,N/A,,Unknown,140,2013-05-19 13:35:00
9:55 AM,77.0,71.6,83,30.14,10.0,SE,5.8,-,N/A,Rain,Rain,140,2013-05-19 13:55:00
10:15 AM,75.2,71.6,89,30.14,10.0,Calm,Calm,-,N/A,Rain,Light Rain,0,2013-05-19 14:15:00
10:35 AM,77.0,71.6,83,30.14,10.0,SSE,3.5,-,N/A,,Unknown,160,2013-05-19 14:35:00
10:55 AM,77.0,71.6,83,30.14,10.0,ESE,3.5,-,N/A,,Unknown,120,2013-05-19 14:55:00
11:15 AM,77.0,71.6,83,30.14,10.0,Calm,Calm,-,N/A,Rain,Rain,0,2013-05-19 15:15:00
11:35 AM,77.0,71.6,83,30.13,10.0,SE,3.5,-,N/A,Rain,Rain,140,2013-05-19 15:35:00
11:55 AM,78.8,71.6,78,30.13,10.0,Calm,Calm,-,N/A,,Unknown,0,2013-05-19 15:55:00
12:15 PM,78.8,71.6,78,30.12,10.0,Calm,Calm,-,N/A,,Unknown,0,2013-05-19 16:15:00
12:35 PM,80.6,71.6,74,30.11,10.0,Calm,Calm,-,N/A,,Unknown,0,2013-05-19 16:35:00
12:55 PM,82.4,71.6,70,30.10,10.0,SSW,4.6,-,N/A,,Unknown,200,2013-05-19 16:55:00
1:15 PM,82.4,69.8,66,30.09,10.0,South,5.8,-,N/A,Thunderstorm,Unknown,170,2013-05-19 17:15:00
1:35 PM,82.4,69.8,66,30.09,10.0,SSW,3.5,-,N/A,,Unknown,200,2013-05-19 17:35:00
1:55 PM,82.4,69.8,66,30.08,10.0,ESE,5.8,-,N/A,,Unknown,120,2013-05-19 17:55:00
2:15 PM,80.6,68.0,65,30.09,10.0,SSE,11.5,18.4,N/A,,Unknown,150,2013-05-19 18:15:00
2:35 PM,77.0,71.6,83,30.08,5.0,SE,9.2,-,N/A,Rain,Rain,130,2013-05-19 18:35:00
3:15 PM,75.2,69.8,83,30.08,10.0,East,6.9,-,N/A,,Unknown,100,2013-05-19 19:15:00
3:35 PM,73.4,69.8,88,30.08,10.0,ESE,5.8,-,N/A,Thunderstorm,Unknown,110,2013-05-19 19:35:00
4:15 PM,71.6,71.6,100,30.09,4.0,ESE,3.5,-,N/A,Rain-Thunderstorm,Heavy Thunderstorms and Rain,120,2013-05-19 20:15:00
4:35 PM,71.6,71.6,100,30.09,7.0,Calm,Calm,-,N/A,Rain,Light Rain,0,2013-05-19 20:35:00
4:55 PM,69.8,69.8,100,30.09,7.0,Calm,Calm,-,N/A,Rain,Rain,0,2013-05-19 20:55:00
5:15 PM,71.6,71.6,100,30.09,4.0,Calm,Calm,-,N/A,Rain,Rain,0,2013-05-19 21:15:00
5:35 PM,71.6,71.6,100,30.09,10.0,NW,4.6,-,N/A,Rain,Light Rain,310,2013-05-19 21:35:00
5:55 PM,71.6,71.6,100,30.09,5.0,Calm,Calm,-,N/A,Rain,Light Rain,0,2013-05-19 21:55:00
6:15 PM,71.6,71.6,100,30.09,7.0,Calm,Calm,-,N/A,Rain,Light Rain,0,2013-05-19 22:15:00
6:35 PM,71.6,71.6,100,30.08,7.0,Calm,Calm,-,N/A,Rain,Light Rain,0,2013-05-19 22:35:00
6:55 PM,71.6,71.6,100,30.08,5.0,Calm,Calm,-,N/A,,Mist,0,2013-05-19 22:55:00
7:15 PM,71.6,71.6,100,30.08,10.0,Calm,Calm,-,N/A,Rain,Light Rain,0,2013-05-19 23:15:00
7:35 PM,71.6,71.6,100,30.08,7.0,Calm,Calm,-,N/A,,Unknown,0,2013-05-19 23:35:00
7:55 PM,71.6,71.6,100,30.07,7.0,East,3.5,-,N/A,,Unknown,80,2013-05-19 23:55:00
8:15 PM,71.6,71.6,100,30.07,7.0,Calm,Calm,-,N/A,,Unknown,0,2013-05-20 00:15:00
8:35 PM,71.6,71.6,100,30.08,10.0,East,3.5,-,N/A,,Unknown,80,2013-05-20 00:35:00
8:55 PM,71.6,71.6,100,30.08,7.0,Calm,Calm,-,N/A,,Unknown,0,2013-05-20 00:55:00
9:15 PM,71.6,71.6,100,30.08,10.0,ESE,4.6,-,N/A,,Unknown,110,2013-05-20 01:15:00
9:35 PM,71.6,71.6,100,30.08,10.0,ESE,5.8,-,N/A,,Unknown,110,2013-05-20 01:35:00
9:55 PM,71.6,71.6,100,30.09,10.0,SE,5.8,-,N/A,,Unknown,130,2013-05-20 01:55:00
10:15 PM,71.6,71.6,100,30.10,10.0,ESE,6.9,-,N/A,,Unknown,120,2013-05-20 02:15:00
10:35 PM,71.6,71.6,100,30.11,10.0,ESE,5.8,-,N/A,,Unknown,120,2013-05-20 02:35:00
10:55 PM,71.6,71.6,100,30.11,10.0,ESE,4.6,-,N/A,,Unknown,120,2013-05-20 02:55:00
11:15 PM,71.6,71.6,100,30.11,10.0,ESE,3.5,-,N/A,,Unknown,120,2013-05-20 03:15:00
11:35 PM,71.6,71.6,100,30.10,10.0,ESE,4.6,-,N/A,,Unknown,120,2013-05-20 03:35:00